This is the latest recevied weather packets stored in our database for station/object AI5BL. If no packets are shown the sender has not sent any weather packets the latest 10 day(s).
| Time | Temp. | Humidity | Pressure | Rain* | Wind** | Luminosity | Snow |
|---|---|---|---|---|---|---|---|
| 1777494676 | 23.89° C | 90% | 1012.6 hPa | 0 mm | - | 7 W/m² | - |
| 1777494374 | 23.89° C | 90% | 1012.9 hPa | 0 mm | - | 7 W/m² | - |
| 1777494070 | 23.89° C | 90% | 1013.5 hPa | 0 mm | - | 7 W/m² | - |
| 1777493768 | 23.89° C | 89% | 1013.4 hPa | 0 mm | - | 9 W/m² | - |
| 1777493161 | 25.56° C | 82% | 1013.2 hPa | 0 mm | - | 19 W/m² | - |
| 1777492858 | 25.56° C | 82% | 1013.5 hPa | 0 mm | - | 19 W/m² | - |
| 1777492555 | 25.56° C | 82% | 1013.8 hPa | 0 mm | - | 19 W/m² | - |
| 1777492250 | 25.56° C | 82% | 1014 hPa | 0 mm | - | 19 W/m² | - |
| 1777491948 | 25.56° C | 82% | 1014.2 hPa | 0 mm | - | 19 W/m² | - |
| 1777491644 | 25.56° C | 82% | 1014.4 hPa | 0 mm | - | 19 W/m² | - |
| 1777491342 | 25.56° C | 82% | 1014.4 hPa | 0 mm | - | 19 W/m² | - |
| 1777491039 | 25.56° C | 82% | 1014.5 hPa | 0 mm | - | 19 W/m² | - |
| 1777490734 | 25.56° C | 82% | 1014.7 hPa | 0 mm | - | 19 W/m² | - |
| 1777490432 | 25.56° C | 82% | 1014.6 hPa | 0 mm | - | 19 W/m² | - |
| 1777490128 | 25.56° C | 82% | 1014.5 hPa | 0 mm | - | 19 W/m² | - |
| 1777489825 | 25.56° C | 82% | 1014.6 hPa | 0 mm | - | 19 W/m² | - |
| 1777489522 | 25.56° C | 81% | 1014.6 hPa | 0 mm | - | 28 W/m² | - |
| 1777489219 | 26.11° C | 82% | 1014.7 hPa | 0 mm | - | 40 W/m² | - |
| 1777488916 | 26.11° C | 82% | 1014.7 hPa | 0 mm | - | 40 W/m² | - |
| 1777488613 | 26.11° C | 79% | 1014.8 hPa | 0 mm | - | 41 W/m² | - |
| 1777488311 | 26.67° C | 78% | 1014.9 hPa | 0 mm | - | 112 W/m² | - |
| 1777488009 | 26.67° C | 78% | 1014.8 hPa | 0 mm | - | 112 W/m² | - |
| 1777487707 | 27.22° C | 77% | 1015 hPa | 0 mm | - | 192 W/m² | - |
| 1777487404 | 27.22° C | 76% | 1014.9 hPa | 0 mm | - | 238 W/m² | - |
| 1777487101 | 26.67° C | 76% | 1015.2 hPa | 0 mm | - | 241 W/m² | - |
* Rain latest hour (hover to see other rain measurements)
** Current wind speed in m/s (hover to see current wind gust speed)